TimeCDT,TemperatureF,Dew PointF,Humidity,Sea Level PressureIn,VisibilityMPH,Wind Direction,Wind SpeedMPH,Gust SpeedMPH,PrecipitationIn,Events,Conditions,WindDirDegrees,DateUTC
12:15 AM,37.4,37.4,100,29.72,0.2,Calm,Calm,-,N/A,Rain,Light Rain,0,2013-03-10 06:15:00
12:35 AM,37.4,37.4,100,29.72,0.5,Calm,Calm,-,N/A,Rain,Light Rain,0,2013-03-10 06:35:00
12:55 AM,37.4,37.4,100,29.72,0.2,Variable,3.5,-,0.04,Rain,Light Rain,0,2013-03-10 06:55:00
1:15 AM,35.6,35.6,100,29.72,0.5,ENE,5.8,-,N/A,,Light Drizzle,70,2013-03-10 07:15:00
1:35 AM,37.4,37.4,100,29.71,0.5,ENE,5.8,-,N/A,,Overcast,60,2013-03-10 07:35:00
1:55 AM,35.6,35.6,100,29.70,0.2,ENE,5.8,-,0.01,Fog,Fog,60,2013-03-10 07:55:00
3:15 AM,35.6,35.6,100,29.71,0.2,ENE,4.6,-,N/A,Fog,Fog,70,2013-03-10 08:15:00
3:35 AM,35.6,35.6,100,29.71,0.2,North,4.6,-,N/A,Fog,Fog,360,2013-03-10 08:35:00
3:55 AM,35.6,35.6,100,29.71,0.2,North,4.6,-,N/A,Fog,Fog,360,2013-03-10 08:55:00
4:15 AM,35.6,35.6,100,29.70,0.2,NNE,5.8,-,N/A,Fog,Fog,30,2013-03-10 09:15:00
4:35 AM,35.6,35.6,100,29.66,0.2,ENE,8.1,-,N/A,Fog,Fog,60,2013-03-10 09:35:00
4:55 AM,37.4,37.4,100,29.64,0.2,NE,4.6,-,N/A,Fog,Fog,50,2013-03-10 09:55:00
5:15 AM,35.6,35.6,100,29.67,0.2,North,5.8,-,N/A,Fog,Fog,10,2013-03-10 10:15:00
5:35 AM,35.6,35.6,100,29.68,0.2,North,8.1,-,N/A,,Overcast,350,2013-03-10 10:35:00
5:55 AM,35.6,35.6,100,29.68,0.2,North,5.8,-,0.01,Fog,Fog,360,2013-03-10 10:55:00
6:15 AM,35.6,35.6,100,29.70,0.2,North,9.2,-,N/A,Fog,Fog,360,2013-03-10 11:15:00
7:35 AM,35.6,35.6,100,29.73,0.8,NNE,9.2,15.0,N/A,,Overcast,20,2013-03-10 12:35:00
7:55 AM,35.6,35.6,100,29.75,0.8,North,10.4,-,0.01,,Overcast,10,2013-03-10 12:55:00
8:15 AM,35.6,35.6,100,29.75,0.8,North,10.4,-,N/A,Rain,Light Rain,10,2013-03-10 13:15:00
8:35 AM,35.6,35.6,100,29.76,1.0,NNE,9.2,-,N/A,Rain,Light Rain,20,2013-03-10 13:35:00
8:55 AM,35.6,35.6,100,29.77,1.2,NNE,9.2,-,0.01,,Light Drizzle,20,2013-03-10 13:55:00
9:15 AM,35.6,35.6,100,29.78,1.0,North,9.2,-,N/A,Rain,Light Rain,360,2013-03-10 14:15:00
9:35 AM,35.6,35.6,100,29.76,1.0,North,9.2,16.1,N/A,Rain,Rain,10,2013-03-10 14:35:00
9:55 AM,35.6,35.6,100,29.77,2.0,North,11.5,17.3,0.05,Rain,Light Rain,10,2013-03-10 14:55:00
10:15 AM,35.6,35.6,100,29.78,2.0,North,10.4,-,N/A,Rain,Light Rain,360,2013-03-10 15:15:00
10:35 AM,35.6,35.6,100,29.79,3.0,North,10.4,-,N/A,Rain,Light Rain,10,2013-03-10 15:35:00
10:55 AM,35.6,35.6,100,29.79,2.5,NNE,11.5,-,0.05,Rain,Light Rain,20,2013-03-10 15:55:00
11:15 AM,35.6,35.6,100,29.78,3.0,North,11.5,-,N/A,Rain,Rain,10,2013-03-10 16:15:00
11:35 AM,35.6,35.6,100,29.76,4.0,NNE,13.8,21.9,N/A,Rain,Rain,20,2013-03-10 16:35:00
11:55 AM,35.6,35.6,100,29.77,4.0,NNE,12.7,20.7,0.06,Rain,Light Rain,30,2013-03-10 16:55:00
12:15 PM,35.6,35.6,100,29.79,6.0,NNE,11.5,19.6,N/A,,Light Drizzle,30,2013-03-10 17:15:00
12:35 PM,35.6,35.6,100,29.79,5.0,North,12.7,-,N/A,,Light Drizzle,10,2013-03-10 17:35:00
12:55 PM,35.6,35.6,100,29.79,5.0,NNE,10.4,19.6,N/A,,Overcast,20,2013-03-10 17:55:00
1:15 PM,35.6,35.6,100,29.77,4.0,NNE,13.8,-,N/A,Rain,Light Rain,20,2013-03-10 18:15:00
1:35 PM,35.6,35.6,100,29.72,9.0,NNE,12.7,21.9,N/A,,Overcast,30,2013-03-10 18:35:00
1:55 PM,35.6,35.6,100,29.73,9.0,NNE,12.7,21.9,0.01,,Overcast,20,2013-03-10 18:55:00
2:15 PM,35.6,35.6,100,29.72,10.0,NNE,13.8,23.0,N/A,,Overcast,30,2013-03-10 19:15:00
2:35 PM,35.6,35.6,100,29.73,10.0,NNE,11.5,20.7,N/A,,Overcast,30,2013-03-10 19:35:00
2:55 PM,35.6,35.6,100,29.72,10.0,NE,11.5,18.4,N/A,,Overcast,40,2013-03-10 19:55:00
3:15 PM,35.6,35.6,100,29.71,7.0,NE,11.5,18.4,N/A,Rain,Light Rain,40,2013-03-10 20:15:00
3:35 PM,35.6,35.6,100,29.70,4.0,NNE,12.7,21.9,N/A,,Overcast,30,2013-03-10 20:35:00
3:55 PM,35.6,35.6,100,29.72,5.0,NE,11.5,17.3,0.04,Rain,Light Rain,40,2013-03-10 20:55:00
4:15 PM,35.6,35.6,100,29.71,8.0,NE,15.0,20.7,N/A,,Light Drizzle,40,2013-03-10 21:15:00
4:35 PM,35.6,35.6,100,29.69,3.0,NNE,15.0,20.7,N/A,Rain,Light Rain,20,2013-03-10 21:35:00
4:55 PM,35.6,35.6,100,29.70,5.0,NNE,12.7,19.6,0.02,Rain,Light Rain,30,2013-03-10 21:55:00
5:15 PM,35.6,33.8,93,29.67,5.0,NNE,13.8,24.2,N/A,Rain,Light Rain,30,2013-03-10 22:15:00
5:35 PM,35.6,33.8,93,29.65,4.0,NE,15.0,20.7,N/A,Rain,Rain,40,2013-03-10 22:35:00
5:55 PM,35.6,33.8,93,29.65,4.0,NNE,11.5,18.4,0.03,Rain,Light Rain,30,2013-03-10 22:55:00
6:15 PM,35.6,33.8,93,29.66,6.0,NE,15.0,21.9,N/A,Rain,Light Rain,40,2013-03-10 23:15:00
6:35 PM,35.6,33.8,93,29.68,4.0,NE,11.5,20.7,N/A,Rain,Light Rain,40,2013-03-10 23:35:00
6:55 PM,35.6,33.8,93,29.68,4.0,NNE,11.5,18.4,0.04,Rain,Rain,20,2013-03-10 23:55:00
7:15 PM,33.8,33.8,100,29.69,3.0,NNE,10.4,17.3,N/A,Rain,Rain,30,2013-03-11 00:15:00
7:35 PM,33.8,33.8,100,29.69,3.0,NNE,11.5,18.4,N/A,Rain,Heavy Rain,20,2013-03-11 00:35:00
7:55 PM,33.8,33.8,100,29.70,4.0,NNE,11.5,-,0.10,Snow,Light Snow,20,2013-03-11 00:55:00
8:15 PM,33.8,32.0,93,29.70,1.5,NNE,12.7,-,N/A,Snow,Light Snow,20,2013-03-11 01:15:00
8:35 PM,33.8,32.0,93,29.70,0.5,North,11.5,18.4,N/A,Snow,Light Snow,10,2013-03-11 01:35:00
9:15 PM,32.0,32.0,100,29.69,0.5,North,11.5,-,N/A,Snow,Light Snow,10,2013-03-11 02:15:00
9:35 PM,32.0,32.0,100,29.69,0.2,North,15.0,23.0,N/A,Snow,Snow,10,2013-03-11 02:35:00
9:55 PM,32.0,32.0,100,29.69,0.5,NNE,11.5,18.4,0.03,Snow,Light Snow,20,2013-03-11 02:55:00
10:15 PM,32.0,32.0,100,29.68,0.8,NNE,13.8,20.7,N/A,Snow,Light Snow,20,2013-03-11 03:15:00
10:35 PM,32.0,32.0,100,29.67,2.0,NNE,16.1,-,N/A,Snow,Light Snow,20,2013-03-11 03:35:00
10:55 PM,32.0,32.0,100,29.67,7.0,NNE,16.1,24.2,0.04,Rain,Light Rain,20,2013-03-11 03:55:00
11:15 PM,32.0,32.0,100,29.68,10.0,NNE,12.7,24.2,N/A,Rain,Light Rain,20,2013-03-11 04:15:00
11:35 PM,32.0,32.0,100,29.68,9.0,NNE,15.0,21.9,N/A,Rain,Light Rain,20,2013-03-11 04:35:00
11:55 PM,32.0,32.0,100,29.67,7.0,NNE,13.8,23.0,0.02,Rain,Light Rain,20,2013-03-11 04:55:00
12:15 AM,32.0,32.0,100,29.67,3.0,NNE,13.8,24.2,N/A,,Overcast,30,2013-03-11 05:15:00
12:35 AM,32.0,32.0,100,29.68,1.8,North,12.7,18.4,N/A,,Overcast,10,2013-03-11 05:35:00
12:55 AM,32.0,32.0,100,29.67,1.8,NNE,10.4,17.3,N/A,Snow,Light Snow,20,2013-03-11 05:55:00